Regional Weather Roundup
Issued by NWS Mt. Holly, NJ

Home | Current Version | Previous Version | Text Only | Print | Product List | Glossary On
Versions: 1 2 3 4 5 6 7 8 9 10 11 12 13 14 15 16 17 18 19 20 21 22 23 24 25 26 27 28 29 30 31 32 33 34 35 36 37 38 39 40 41 42 43 44 45 46 47 48 49 50
000
ASUS41 KPHI 261412
RWRPHI

REGIONAL WEATHER ROUNDUP
NATIONAL WEATHER SERVICE MOUNT HOLLY NJ
1000 AM EDT TUE JUL 26 2016

NOTE:  "FAIR" INDICATES FEW OR NO CLOUDS BELOW 12,000 FEET WITH NO
SIGNIFICANT WEATHER AND/OR OBSTRUCTIONS TO VISIBILITY.

 * = STATION DOES NOT REPORT PRECIPITATION (E.G. RAIN, SNOW, ETC.)
        OR FOG.

NJZ015>026-261500-
SOUTHERN NEW JERSEY

CITY           SKY/WX    TMP DP  RH WIND       PRES   REMARKS
POMONA         MOSUNNY   83  70  64 N9        29.94R
WILDWOOD*      MOSUNNY   84  73  69 NW6       29.95R HX  90
MILLVILLE      MOSUNNY   86  72  62 NW8       29.95S HX  92
WRIGHTSTOWN    SUNNY     81  72  73 NW7       29.92R
MOUNT HOLLY    SUNNY     82  70  66 N7        29.94S
TRENTON        SUNNY     81  70  69 NW8       29.94S

$$
NJZ001>014-261500-
NORTHERN NEW JERSEY

CITY           SKY/WX    TMP DP  RH WIND       PRES   REMARKS
SUSSEX         MOSUNNY   78  70  76 VRB3      29.94S
ANDOVER*         N/A     76  69  79 VRB5      29.96S
MORRISTOWN     MOSUNNY   81  68  65 NW12      29.93F
NEWARK         MOSUNNY   84  68  58 W12       29.91F
TETERBORO      SUNNY     82  68  62 W8        29.90F
CALDWELL       SUNNY     80  68  66 W7        29.93S
SOMERVILLE     SUNNY     82  71  69 VRB3      29.92S
ALLAIRE*       SUNNY     82  70  66 NW7       29.94S
TOMS RIVER*    MOSUNNY   82  71  69 NW8       29.94S

$$
PAZ043-044-047-054-055-060>062-066>071-261500-
EASTERN PENNSYLVANIA

CITY           SKY/WX    TMP DP  RH WIND       PRES   REMARKS
PHILADELPHIA   PTSUNNY   84  70  62 N9        29.95S
NORTH PHILA    SUNNY     83  72  69 NW8       29.96S
BLUE BELL*     SUNNY     79  72  78 NW6       29.95S
DOYLESTOWN     SUNNY     80  69  69 W6        29.95S
QUAKERTOWN*    SUNNY     82  70  65 CALM      29.97S
PERKASIE*      FAIR      81  68  65 NW6       29.97F
POTTSTOWN      SUNNY     80  72  76 VRB3      29.97F
LANCASTER      SUNNY     78  74  87 W5        29.97F FOG
COATESVILLE    SUNNY     81  73  78 NW8       29.99S
READING        SUNNY     81  72  74 VRB5      29.96S
ALLENTOWN      MOSUNNY   80  71  74 CALM      29.96S
MOUNT POCONO   MOSUNNY   72  65  78 NW9       30.01S
HAZLETON       PTSUNNY   70  68  94 NW7       30.05S
LEHIGHTON      FAIR      72  72 100 CALM      29.98S
WILKES BARRE   MOSUNNY   76  67  73 VRB3      29.98F

$$
DEZALL-MDZ008-012-015-019-020-261500-
DELAWARE AND EASTERN MARYLAND

CITY           SKY/WX    TMP DP  RH WIND       PRES   REMARKS
WILMINGTON     SUNNY     84  73  69 NW5       29.96S HX  90
DOVER          MOSUNNY   84  76  76 N10       29.94R HX  93
GEORGETOWN     PTSUNNY   83  74  74 N5        29.96R
EASTON         MOSUNNY   84  81  89 N5        29.99R HX  98
ABERDEEN       PTSUNNY   86  73  66 N7        29.95S HX  93
PATUXENT       PTSUNNY   85  76  74 W5        29.95S HX  94
OCEAN CITY     MOSUNNY   84  75  74 NE6       29.95R HX  92
WALLOPS ISLAND PTSUNNY   87  77  72 N7        29.95R HX  99
CAMBRIDGE      MOSUNNY   82  75  78 N3        29.95S
SALISBURY      MOSUNNY   84  77  79 N6        29.95R HX  94

$$
PAZ001-021-NYZ056-072-MDZ011-DCZ001-261500-
OTHER NEARBY LOCATIONS

CITY           SKY/WX    TMP DP  RH WIND       PRES   REMARKS
HARRISBURG     MOSUNNY   81  76  84 NW6       29.97S
STATE COLLEGE  MOSUNNY   75  68  78 N3        30.04S
WILLIAMSPORT   MOSUNNY   79  68  69 VRB7      29.97F
BINGHAMTON     MOSUNNY   72  63  73 NW8       29.99S
NEW YORK CITY  SUNNY     79  68  69 VRB6      29.94F
BALTIMORE      PTSUNNY   87  71  58 NW5       29.95F HX  93
WASHINGTON DC  PTSUNNY   89  72  56 NW12      29.97S HX  96

$$



USA.gov is the U.S. government's official web portal to all federal, state and local government web resources and services.